Tracking 23731 objects as of 27-Sep-2021
HD Live streaming from Space Station
objects crossing your sky now

CZ-4B DEB

Track CZ-4B DEB now!
10-day predictions


NORAD ID: 29536
Int'l Code: 2006-015C
Perigee: 603.6 km
Apogee: 834.3 km
Inclination: 97.7 °
Period: 99.0 minutes
Semi major axis: 7089 km
RCS: 0.0177 m2 (small)
Launch date: April 26, 2006
Source: People's Republic of China (PRC)
Launch site: Taiyaun Space Center, China (TSC)

Note: This is SATELLITE DEBRIS
aabbcc
Your satellite tracking list
Your tracking list is empty




NASA's NSSDC Master Catalog

Two Line Element Set (TLE):
1 29536U 06015C   21270.49727076  .00000882  00000-0  18357-3 0  9996
2 29536  97.7382 285.8169 0162684  71.2272 290.6498 14.54258248811089
Source of the keplerian elements: AFSPC